| time (UTC) | temp F | wind direction | speed MPH | gust MPH | rain 1hr in | rain 24hr in | rain mn in | humidity % | barometer mb |
| 20260901012158 | 77 | 71 | 4.0 | 8.0 | 0.00 | 0.00 | 0.00 | 31 | 1009.9 |
| 20260901011142 | 78 | 71 | 4.0 | 12.0 | 0.00 | 0.00 | 0.00 | 29 | 1009.9 |
| 20260901010153 | 79 | 87 | 5.0 | 11.0 | 0.00 | 0.00 | 0.00 | 28 | 1009.9 |
| 20260901005154 | 79 | 82 | 5.0 | 13.0 | 0.00 | 0.00 | 0.00 | 28 | 1009.9 |
| 20260901004159 | 80 | 98 | 5.0 | 11.0 | 0.00 | 0.00 | 0.00 | 27 | 1009.9 |
| 20260901003149 | 81 | 95 | 3.0 | 10.0 | 0.00 | 0.00 | 0.00 | 27 | 1009.9 |
| 20260901002208 | 81 | 119 | 2.0 | 15.0 | 0.00 | 0.00 | 0.00 | 25 | 1009.9 |
| 20260901001151 | 82 | 107 | 2.0 | 10.0 | 0.00 | 0.00 | 0.00 | 24 | 1010.0 |
| 20260901000155 | 83 | 96 | 5.0 | 15.0 | 0.00 | 0.00 | 0.00 | 23 | 1010.0 |
| 20260831235156 | 83 | 111 | 4.0 | 10.0 | 0.00 | 0.00 | 0.00 | 23 | 1010.0 |
| 20260831234159 | 82 | 92 | 5.0 | 10.0 | 0.00 | 0.00 | 0.00 | 23 | 1010.0 |
| 20260831233146 | 84 | 153 | 5.0 | 13.0 | 0.00 | 0.00 | 0.00 | 22 | 1010.0 |
| 20260831232148 | 87 | 109 | 5.0 | 11.0 | 0.00 | 0.00 | 0.00 | 20 | 1010.0 |
| 20260831231152 | 87 | 160 | 4.0 | 10.0 | 0.00 | 0.00 | 0.00 | 20 | 1010.1 |
| 20260831230155 | 85 | 121 | 5.0 | 10.0 | 0.00 | 0.00 | 0.00 | 22 | 1010.1 |
| 20260831225143 | 84 | 126 | 4.0 | 10.0 | 0.00 | 0.01 | 0.00 | 22 | 1010.4 |
| 20260831224200 | 85 | 106 | 3.0 | 11.0 | 0.00 | 0.01 | 0.00 | 22 | 1010.6 |
| 20260831223146 | 86 | 83 | 7.0 | 11.0 | 0.00 | 0.01 | 0.00 | 22 | 1010.6 |
| 20260831222151 | 87 | 102 | 7.0 | 16.0 | 0.00 | 0.01 | 0.00 | 21 | 1010.6 |
| 20260831221154 | 86 | 84 | 5.0 | 12.0 | 0.00 | 0.01 | 0.00 | 21 | 1010.7 |
| 20260831220201 | 86 | 94 | 8.0 | 16.0 | 0.00 | 0.01 | 0.00 | 23 | 1010.7 |
| 20260831215143 | 83 | 135 | 4.0 | 11.0 | 0.00 | 0.10 | 0.00 | 23 | 1010.8 |
| 20260831214152 | 82 | 78 | 6.0 | 17.0 | 0.00 | 0.10 | 0.00 | 25 | 1010.9 |
| 20260831213212 | 84 | 93 | 6.0 | 13.0 | 0.00 | 0.10 | 0.00 | 24 | 1010.9 |
| 20260831212153 | 86 | 98 | 7.0 | 10.0 | 0.00 | 0.10 | 0.00 | 21 | 1011.1 |
| 20260831211156 | 86 | 5 | 4.0 | 13.0 | 0.00 | 0.10 | 0.00 | 22 | 1011.2 |
| 20260831210201 | 86 | 113 | 2.0 | 10.0 | 0.00 | 0.10 | 0.00 | 21 | 1011.2 |
| 20260831205158 | 85 | 123 | 2.0 | 13.0 | 0.00 | 0.10 | 0.00 | 22 | 1011.4 |
| 20260831204211 | 86 | 40 | 5.0 | 12.0 | 0.00 | 0.10 | 0.00 | 24 | 1011.8 |
| 20260831203151 | 86 | 68 | 4.0 | 11.0 | 0.00 | 0.10 | 0.00 | 24 | 1011.8 |
| 20260831202155 | 86 | 101 | 8.0 | 13.0 | 0.00 | 0.10 | 0.00 | 24 | 1011.8 |
| 20260831201157 | 84 | 136 | 2.0 | 15.0 | 0.00 | 0.10 | 0.00 | 25 | 1012.2 |
| 20260831200143 | 83 | 90 | 3.0 | 9.0 | 0.00 | 0.10 | 0.00 | 25 | 1012.2 |
| 20260831195147 | 82 | 103 | 3.0 | 7.0 | 0.00 | 0.10 | 0.00 | 27 | 1012.4 |
| 20260831194151 | 81 | 67 | 2.0 | 8.0 | 0.00 | 0.10 | 0.00 | 26 | 1012.4 |
| 20260831193156 | 81 | 80 | 5.0 | 10.0 | 0.00 | 0.10 | 0.00 | 26 | 1012.4 |
| 20260831192159 | 81 | 74 | 3.0 | 9.0 | 0.00 | 0.10 | 0.00 | 27 | 1012.5 |
| 20260831191206 | 82 | 128 | 4.0 | 8.0 | 0.00 | 0.10 | 0.00 | 25 | 1012.8 |
| 20260831190152 | 82 | 94 | 3.0 | 10.0 | 0.00 | 0.10 | 0.00 | 26 | 1012.8 |
| 20260831185156 | 82 | 96 | 5.0 | 9.0 | 0.00 | 0.10 | 0.00 | 26 | 1013.0 |
| 20260831184159 | 81 | 70 | 5.0 | 10.0 | 0.00 | 0.10 | 0.00 | 26 | 1013.0 |
| 20260831183203 | 81 | 69 | 3.0 | 7.0 | 0.00 | 0.10 | 0.00 | 27 | 1013.0 |
| 20260831182148 | 80 | 42 | 3.0 | 6.0 | 0.00 | 0.10 | 0.00 | 27 | 1013.1 |
| 20260831181150 | 79 | 24 | 4.0 | 8.0 | 0.00 | 0.10 | 0.00 | 28 | 1013.3 |
| 20260831180154 | 79 | 44 | 3.0 | 7.0 | 0.00 | 0.10 | 0.00 | 28 | 1013.3 |
| 20260831175202 | 79 | 17 | 5.0 | 8.0 | 0.00 | 0.10 | 0.00 | 28 | 1013.3 |
| 20260831174221 | 79 | 52 | 3.0 | 8.0 | 0.00 | 0.10 | 0.00 | 29 | 1013.4 |
| 20260831173147 | 79 | 69 | 3.0 | 7.0 | 0.00 | 0.10 | 0.00 | 31 | 1013.4 |
| 20260831172152 | 78 | 74 | 2.0 | 7.0 | 0.00 | 0.10 | 0.00 | 31 | 1013.5 |
| 20260831171213 | 78 | 118 | 2.0 | 3.0 | 0.00 | 0.10 | 0.00 | 29 | 1013.5 |
| 20260831170157 | 79 | 118 | 0.0 | 3.0 | 0.00 | 0.10 | 0.00 | 28 | 1013.5 |
| 20260831165220 | 79 | 118 | 0.0 | 5.0 | 0.00 | 0.10 | 0.00 | 26 | 1013.5 |
| 20260831164201 | 79 | 203 | 1.0 | 6.0 | 0.00 | 0.10 | 0.00 | 27 | 1013.4 |
| 20260831163154 | 78 | 205 | 0.0 | 3.0 | 0.00 | 0.10 | 0.00 | 27 | 1013.4 |
| 20260831162156 | 77 | 205 | 1.0 | 5.0 | 0.00 | 0.10 | 0.00 | 31 | 1013.2 |
| 20260831161218 | 77 | 204 | 1.0 | 5.0 | 0.00 | 0.10 | 0.00 | 28 | 1013.2 |
| 20260831160148 | 77 | 201 | 3.0 | 6.0 | 0.00 | 0.10 | 0.00 | 30 | 1013.2 |
| 20260831155152 | 76 | 249 | 1.0 | 6.0 | 0.00 | 0.10 | 0.00 | 30 | 1013.1 |
| 20260831154216 | 75 | 241 | 3.0 | 7.0 | 0.00 | 0.10 | 0.00 | 32 | 1013.1 |
| 20260831153145 | 75 | 188 | 5.0 | 8.0 | 0.00 | 0.10 | 0.00 | 33 | 1013.1 |
| 20260831152151 | 74 | 221 | 6.0 | 10.0 | 0.00 | 0.10 | 0.00 | 34 | 1013.0 |
| 20260831151159 | 73 | 259 | 4.0 | 7.0 | 0.00 | 0.10 | 0.00 | 37 | 1013.0 |
| 20260831150201 | 72 | 223 | 3.0 | 8.0 | 0.00 | 0.10 | 0.00 | 38 | 1013.0 |
| 20260831145202 | 72 | 239 | 4.0 | 11.0 | 0.00 | 0.10 | 0.00 | 37 | 1013.0 |
| 20260831144210 | 72 | 242 | 6.0 | 11.0 | 0.00 | 0.10 | 0.00 | 38 | 1012.9 |
| 20260831143149 | 71 | 229 | 7.0 | 10.0 | 0.00 | 0.10 | 0.00 | 41 | 1012.9 |
| 20260831142215 | 70 | 174 | 4.0 | 11.0 | 0.00 | 0.10 | 0.00 | 39 | 1012.8 |
| 20260831141159 | 70 | 209 | 6.0 | 10.0 | 0.00 | 0.10 | 0.00 | 42 | 1012.6 |
| 20260831140220 | 69 | 204 | 4.0 | 8.0 | 0.00 | 0.10 | 0.00 | 41 | 1012.6 |
| 20260831135145 | 67 | 204 | 4.0 | 7.0 | 0.00 | 0.10 | 0.00 | 44 | 1012.4 |
| 20260831134150 | 67 | 207 | 2.0 | 7.0 | 0.00 | 0.10 | 0.00 | 45 | 1012.4 |
| 20260831133205 | 66 | 213 | 3.0 | 11.0 | 0.00 | 0.10 | 0.00 | 45 | 1012.4 |
| 20260831132207 | 66 | 209 | 4.0 | 10.0 | 0.00 | 0.10 | 0.00 | 46 | 1012.1 |
| 20260831131147 | 65 | 189 | 6.0 | 11.0 | 0.00 | 0.10 | 0.00 | 47 | 1011.8 |
| 20260831130204 | 64 | 184 | 5.0 | 9.0 | 0.00 | 0.10 | 0.00 | 49 | 1011.8 |
| 20260831125148 | 64 | 191 | 5.0 | 8.0 | 0.00 | 0.10 | 0.00 | 50 | 1011.8 |
| 20260831124216 | 64 | 170 | 5.0 | 7.0 | 0.00 | 0.10 | 0.00 | 50 | 1011.7 |
| 20260831123155 | 63 | 178 | 5.0 | 8.0 | 0.00 | 0.10 | 0.00 | 50 | 1011.7 |
| 20260831122203 | 64 | 174 | 6.0 | 9.0 | 0.00 | 0.10 | 0.00 | 49 | 1011.4 |
| 20260831121206 | 64 | 192 | 6.0 | 9.0 | 0.00 | 0.10 | 0.00 | 48 | 1011.3 |
| 20260831120146 | 65 | 196 | 5.0 | 8.0 | 0.00 | 0.10 | 0.00 | 48 | 1011.3 |
| 20260831115151 | 64 | 201 | 5.0 | 11.0 | 0.00 | 0.10 | 0.00 | 49 | 1011.2 |
| 20260831114154 | 64 | 200 | 6.0 | 12.0 | 0.00 | 0.10 | 0.00 | 49 | 1011.2 |
| 20260831113153 | 64 | 201 | 8.0 | 12.0 | 0.00 | 0.10 | 0.00 | 49 | 1011.2 |
| 20260831112157 | 64 | 194 | 6.0 | 8.0 | 0.00 | 0.10 | 0.00 | 50 | 1011.2 |
| 20260831111204 | 65 | 182 | 6.0 | 9.0 | 0.00 | 0.10 | 0.00 | 49 | 1011.0 |
| 20260831110212 | 65 | 186 | 7.0 | 12.0 | 0.00 | 0.10 | 0.00 | 48 | 1011.0 |
| 20260831105151 | 65 | 188 | 8.0 | 11.0 | 0.00 | 0.10 | 0.00 | 49 | 1011.0 |
| 20260831104156 | 65 | 199 | 8.0 | 12.0 | 0.00 | 0.10 | 0.00 | 50 | 1010.9 |
| 20260831103220 | 65 | 209 | 8.0 | 12.0 | 0.00 | 0.10 | 0.00 | 49 | 1010.9 |
| 20260831102201 | 65 | 208 | 5.0 | 12.0 | 0.00 | 0.10 | 0.00 | 49 | 1011.0 |
| 20260831101204 | 64 | 200 | 6.0 | 10.0 | 0.00 | 0.10 | 0.00 | 51 | 1010.8 |
| 20260831100148 | 64 | 192 | 7.0 | 10.0 | 0.00 | 0.10 | 0.00 | 53 | 1010.8 |
| 20260831095150 | 64 | 186 | 6.0 | 9.0 | 0.00 | 0.10 | 0.00 | 53 | 1010.8 |
| 20260831094153 | 64 | 199 | 5.0 | 8.0 | 0.00 | 0.10 | 0.00 | 53 | 1010.9 |
| 20260831093146 | 64 | 188 | 7.0 | 11.0 | 0.00 | 0.10 | 0.00 | 53 | 1010.9 |
| 20260831092155 | 64 | 176 | 8.0 | 12.0 | 0.00 | 0.10 | 0.00 | 54 | 1010.8 |
| 20260831091158 | 65 | 175 | 7.0 | 10.0 | 0.00 | 0.10 | 0.00 | 52 | 1010.9 |
| 20260831090201 | 65 | 198 | 4.0 | 11.0 | 0.00 | 0.10 | 0.00 | 51 | 1010.9 |
| 20260831085147 | 65 | 184 | 4.0 | 6.0 | 0.00 | 0.10 | 0.00 | 53 | 1010.7 |
| 20260831084153 | 65 | 182 | 3.0 | 9.0 | 0.00 | 0.10 | 0.00 | 52 | 1010.9 |
| 20260831083159 | 65 | 186 | 6.0 | 10.0 | 0.00 | 0.10 | 0.00 | 53 | 1010.9 |
| 20260831082148 | 64 | 197 | 6.0 | 7.0 | 0.00 | 0.10 | 0.00 | 55 | 1011.1 |
| 20260831081150 | 63 | 169 | 2.0 | 4.0 | 0.00 | 0.10 | 0.00 | 58 | 1011.1 |
| 20260831080155 | 63 | 170 | 0.0 | 3.0 | 0.00 | 0.10 | 0.00 | 57 | 1011.1 |
| 20260831075159 | 63 | 170 | 2.0 | 4.0 | 0.00 | 0.10 | 0.00 | 56 | 1011.2 |
| 20260831074204 | 64 | 169 | 3.0 | 7.0 | 0.00 | 0.10 | 0.00 | 56 | 1011.3 |
| 20260831073150 | 63 | 169 | 5.0 | 6.0 | 0.00 | 0.10 | 0.00 | 57 | 1011.3 |
| 20260831072157 | 63 | 169 | 3.0 | 5.0 | 0.00 | 0.10 | 0.00 | 58 | 1011.5 |
| 20260831071202 | 63 | 169 | 0.0 | 5.0 | 0.00 | 0.10 | 0.00 | 57 | 1011.6 |
| 20260831070203 | 62 | 169 | 3.0 | 8.0 | 0.00 | 0.10 | 0.00 | 59 | 1011.6 |
| 20260831065148 | 62 | 172 | 6.0 | 8.0 | 0.00 | 0.10 | 0.00 | 63 | 1011.8 |
| 20260831064150 | 63 | 174 | 6.0 | 8.0 | 0.00 | 0.10 | 0.00 | 60 | 1012.0 |
| 20260831063159 | 64 | 178 | 7.0 | 11.0 | 0.00 | 0.10 | 0.00 | 57 | 1012.0 |
| 20260831062159 | 64 | 186 | 9.0 | 12.0 | 0.00 | 0.10 | 0.00 | 56 | 1011.8 |
| 20260831061148 | 65 | 180 | 6.0 | 11.0 | 0.00 | 0.10 | 0.00 | 54 | 1012.0 |
| 20260831060153 | 65 | 180 | 7.0 | 11.0 | 0.00 | 0.10 | 0.00 | 54 | 1012.0 |
| 20260831055205 | 66 | 197 | 5.0 | 14.0 | 0.00 | 0.10 | 0.10 | 52 | 1012.4 |
| 20260831054213 | 66 | 190 | 7.0 | 12.0 | 0.00 | 0.10 | 0.10 | 53 | 1012.4 |
| 20260831053157 | 66 | 200 | 6.0 | 11.0 | 0.00 | 0.10 | 0.10 | 54 | 1012.4 |
| 20260831052157 | 65 | 189 | 6.0 | 11.0 | 0.00 | 0.10 | 0.10 | 56 | 1012.4 |
| 20260831051224 | 66 | 179 | 6.0 | 10.0 | 0.00 | 0.10 | 0.10 | 55 | 1012.6 |
| 20260831050149 | 66 | 171 | 9.0 | 17.0 | 0.00 | 0.10 | 0.10 | 54 | 1012.6 |
| 20260831045149 | 68 | 185 | 14.0 | 22.0 | 0.00 | 0.10 | 0.10 | 49 | 1012.5 |
| 20260831044153 | 68 | 206 | 14.0 | 23.0 | 0.00 | 0.10 | 0.10 | 47 | 1012.4 |
| 20260831043157 | 68 | 180 | 13.0 | 22.0 | 0.00 | 0.10 | 0.10 | 49 | 1012.4 |
| 20260831042155 | 68 | 180 | 11.0 | 18.0 | 0.00 | 0.10 | 0.10 | 52 | 1012.4 |
| 20260831041223 | 68 | 168 | 13.0 | 18.0 | 0.00 | 0.10 | 0.10 | 50 | 1011.8 |
| 20260831040204 | 68 | 214 | 6.0 | 11.0 | 0.00 | 0.10 | 0.10 | 48 | 1011.8 |
| 20260831035227 | 66 | 188 | 2.0 | 11.0 | 0.00 | 0.10 | 0.10 | 60 | 1011.2 |
| 20260831034157 | 68 | 157 | 6.0 | 8.0 | 0.00 | 0.10 | 0.10 | 54 | 1011.2 |
| 20260831033222 | 69 | 143 | 3.0 | 16.0 | 0.00 | 0.10 | 0.10 | 50 | 1011.2 |
| 20260831032144 | 68 | 169 | 11.0 | 17.0 | 0.00 | 0.10 | 0.10 | 54 | 1011.8 |
| 20260831031152 | 67 | 163 | 8.0 | 14.0 | 0.00 | 0.10 | 0.10 | 60 | 1011.8 |
| 20260831030159 | 66 | 183 | 12.0 | 17.0 | 0.00 | 0.10 | 0.10 | 62 | 1011.8 |
| 20260831025156 | 64 | 167 | 4.0 | 7.0 | 0.00 | 0.10 | 0.10 | 68 | 1011.8 |
| 20260831024222 | 64 | 167 | 3.0 | 5.0 | 0.00 | 0.10 | 0.10 | 69 | 1011.3 |
| 20260831023149 | 64 | 167 | 4.0 | 4.0 | 0.00 | 0.10 | 0.10 | 68 | 1011.3 |
| 20260831022152 | 64 | 167 | 3.0 | 5.0 | 0.00 | 0.10 | 0.10 | 66 | 1011.1 |
| 20260831021218 | 64 | 167 | 5.0 | 8.0 | 0.00 | 0.10 | 0.10 | 68 | 1010.6 |
| 20260831020222 | 64 | 168 | 5.0 | 8.0 | 0.00 | 0.10 | 0.10 | 70 | 1010.6 |
| 20260831015149 | 64 | 186 | 6.0 | 8.0 | 0.00 | 0.10 | 0.10 | 73 | 1010.6 |
| 20260831014159 | 64 | 167 | 5.0 | 7.0 | 0.00 | 0.10 | 0.10 | 70 | 1010.6 |
| 20260831013149 | 66 | 165 | 4.0 | 7.0 | 0.00 | 0.10 | 0.10 | 67 | 1010.6 |